Overview Statistics Trail Chart Weather Telemetry Raw packets
 

This is the latest recevied weather packets stored in our database for station/object YM2KA-13. If no packets are shown the sender has not sent any weather packets the latest 10 day(s).

<< 75 76 77 78 79 80 81 >>
Time Temp. Humidity Pressure Rain* Wind** Luminosity Snow
1787992815 20° C 55% 1009.2 hPa 0 mm - - -
1787992682 20° C 55% 1009.2 hPa 0 mm - - -
1787992215 19.44° C 56% 1009.1 hPa 0 mm - - -
1787991779 20° C 55% 1009.1 hPa 0 mm - - -
1787991616 20° C 56% 1009.2 hPa 0 mm - - -
1787991018 19.44° C 58% 1009.3 hPa 0 mm - - -
1787990886 18.89° C 58% 1009.3 hPa 0 mm - - -
1787990428 18.89° C 60% 1009.3 hPa 0 mm - - -
1787989982 18.89° C 60% 1009.5 hPa 0 mm - - -
1787989820 18.33° C 61% 1009.5 hPa 0 mm - - -
1787989221 18.33° C 61% 1009.5 hPa 0 mm - - -
1787989079 18.33° C 60% 1009.6 hPa 0 mm - - -
1787988612 18.33° C 62% 1009.7 hPa 0 mm - - -
1787988186 17.78° C 62% 1009.6 hPa 0 mm - - -
1787988013 17.78° C 62% 1009.7 hPa 0 mm - - -
1787987414 17.78° C 63% 1009.5 hPa 0 mm - - -
1787987282 17.78° C 63% 1009.5 hPa 0 mm - - -
1787986815 17.78° C 64% 1009.5 hPa 0 mm - - -
1787986379 17.22° C 64% 1009.6 hPa 0 mm - - -
1787986216 17.22° C 65% 1009.6 hPa 0 mm - - -
1787985618 16.67° C 65% 1009.6 hPa 0 mm - - -
1787985486 16.67° C 65% 1009.7 hPa 0 mm - - -
1787985018 16.67° C 65% 1009.6 hPa 0 mm - - -
1787984582 16.67° C 66% 1009.6 hPa 0 mm - - -
1787984419 16.67° C 65% 1009.6 hPa 0 mm - - -

* Rain latest hour (hover to see other rain measurements)
** Current wind speed in m/s (hover to see current wind gust speed)